www.pogodaiklimat.ru

Погода и климат >> Архив погоды >> Антарктида >> Sky Blue


ПОГОДА в Sky Blue

  • Прогноз погоды в Sky Blue
  • Монитор погоды в Sky Blue
  • Климат города

АРХИВ ПОГОДЫ в Sky Blue

Время (UTC), дата Ветер
(напр.,м/с)
 
Видим.   Явления Облачность Т
(С)
Тd
(С)
f
(%)
Тe
(С)
Тes
(С)
Комфортность P
(гПа)
Po
(гПа)
Тmin
(С)
Tmax
(С)
R
(мм)
R24
(мм)
S
(см)
12 15.09 С 4 н/о н/о -28.0 -32.3 67 -38 -38 опасность
обморожения
966.5 794.3
15 15.09 СВ 4 н/о н/о -29.3 -33.8 65 -40 -40 опасность
обморожения
968.0 794.8
18 15.09 С 4 н/о н/о -29.8 -34.4 64 -41 -41 опасность
обморожения
969.0 795.3
21 15.09 С 3 н/о н/о -31.1 -35.9 63 -41 -41 опасность
обморожения
970.3 795.6
00 16.09 СВ 4 н/о н/о -34.5 -39.8 58 -47 -47 опасность
обморожения
972.8 795.6
03 16.09 СВ 3 н/о н/о -35.7 -41.3 56 -47 -47 опасность
обморожения
972.7 794.8
06 16.09 СВ 2 н/о н/о -36.1 -41.7 56 -45 -45 опасность
обморожения
973.0 794.8
09 16.09 СВ 4 н/о н/о -36.4 -42.1 55 -48 -48 опасность
обморожения
973.0 794.6
12 16.09 С 6 н/о н/о -34.1 -39.5 58 -48 -48 опасность
обморожения
972.0 795.2
15 16.09 С 6 н/о н/о -32.5 -37.6 60 -47 -47 опасность
обморожения
972.1 796.2
18 16.09 С 4 н/о н/о -30.2 -34.9 63 -42 -42 опасность
обморожения
971.9 797.4
21 16.09 С 4 н/о н/о -31.0 -35.8 63 -42 -42 опасность
обморожения
974.0 798.7
00 17.09 В 2 н/о н/о -28.8 -33.2 66 -35 -35 опасность
обморожения
973.8 799.8
03 17.09 н/о н/о -29.8 -34.4 64 975.3 800.5
06 17.09 СВ 4 н/о н/о -35.0 -40.5 57 -47 -47 опасность
обморожения
979.8 801.0
09 17.09 СВ 5 н/о н/о -37.4 -43.3 54 -52 -52 опасность
обморожения
982.1 801.4
12 17.09 СВ 4 н/о н/о -36.3 -42.1 55 -48 -48 опасность
обморожения
981.7 801.8
15 17.09 СВ 3 н/о н/о -33.7 -39.2 57 -43 -43 опасность
обморожения
980.4 802.3
18 17.09 СВ 3 н/о н/о -32.2 -37.2 61 -42 -42 опасность
обморожения
979.9 802.8
21 17.09 С 3 н/о н/о -34.3 -39.6 58 -45 -45 опасность
обморожения
981.8 803.1
00 18.09 С 3 н/о н/о -35.8 -41.5 56 -46 -46 опасность
обморожения
983.1 803.2
03 18.09 СВ 3 н/о н/о -37.4 -43.3 54 -49 -49 опасность
обморожения
984.7 803.5
06 18.09 СВ 3 н/о н/о -36.3 -42.1 55 -46 -46 опасность
обморожения
983.7 803.4
09 18.09 СВ 3 н/о н/о -34.7 -40.2 57 -44 -44 опасность
обморожения
983.0 803.8
12 18.09 С 4 н/о н/о -29.2 -33.8 64 -40 -40 опасность
обморожения
978.9 803.8
15 18.09 С 5 н/о н/о -27.3 -31.5 67 -39 -39 опасность
обморожения
978.7 804.7
18 18.09 СЗ 6 н/о н/о -25.1 -29.0 70 -38 -38 опасность
обморожения
977.7 805.2
21 18.09 СЗ 7 н/о н/о -25.4 -29.3 70 -38 -38 опасность
обморожения
979.4 806.4
00 19.09 СЗ 7 н/о н/о -24.9 -28.7 71 -38 -38 опасность
обморожения
980.0 807.2
03 19.09 СЗ 6 н/о н/о -25.2 -29.1 70 -38 -38 опасность
обморожения
980.2 807.2
06 19.09 СЗ 10 н/о н/о -25.3 -29.2 70 -40 -40 опасность
обморожения
980.6 807.4
09 19.09 С 14 н/о н/о -24.5 -28.2 71 -42 -42 опасность
обморожения
979.6 807.1
12 19.09 С 19 н/о н/о -27.5 -31.7 67 -48 -48 опасность
обморожения
980.9 806.4
15 19.09 С 25 н/о н/о -27.2 -31.4 67 -49 -49 опасность
обморожения
977.8 804.0
18 19.09 С 25 н/о н/о -25.9 -29.8 70 -47 -47 опасность
обморожения
977.0 804.1
21 19.09 С 23 н/о н/о -24.5 -28.2 71 -45 -45 опасность
обморожения
977.1 805.0
00 20.09 С 19 н/о н/о -25.6 -29.5 70 -45 -45 опасность
обморожения
981.0 807.6
03 20.09 С 16 н/о н/о -25.9 -29.8 70 -44 -44 опасность
обморожения
985.1 810.8
06 20.09 С 16 н/о н/о -25.3 -29.1 70 -44 -44 опасность
обморожения
988.0 813.5
09 20.09 С 13 н/о н/о -25.2 -29.0 70 -42 -42 опасность
обморожения
991.5 816.5
12 20.09 С 13 н/о н/о -23.8 -27.4 72 -40 -40 опасность
обморожения
992.4 818.0
15 20.09 С 13 н/о н/о -23.8 -27.4 72 -40 -40 опасность
обморожения
994.1 819.4
18 20.09 С 16 н/о н/о -22.2 -25.5 74 -39 -39 опасность
обморожения
992.3 818.9
21 20.09 С 13 н/о н/о -21.8 -25.0 75 -37 -37 опасность
обморожения
993.3 819.9
00 21.09 С 13 н/о н/о -21.2 -24.3 76 -37 -37 опасность
обморожения
993.4 820.3
03 21.09 С 12 н/о н/о -21.4 -24.6 75 -37 -37 опасность
обморожения
993.1 820.0
06 21.09 С 13 н/о н/о -18.3 -20.9 80 -33 -33 опасность
обморожения
989.1 818.4
09 21.09 С 12 н/о н/о -16.9 -19.3 82 -30 -30 986.3 816.9
12 21.09 С 12 н/о н/о -16.2 -18.4 83 -30 -30 984.1 815.4
15 21.09 С 15 н/о н/о -16.4 -18.7 82 -31 -31 опасность
обморожения
982.4 813.9
18 21.09 С 15 н/о н/о -19.6 -22.4 78 -35 -35 опасность
обморожения
982.9 812.6
21 21.09 С 13 н/о н/о -20.6 -23.6 77 -36 -36 опасность
обморожения
982.5 811.7
00 22.09 С 12 н/о н/о -21.7 -24.9 75 -37 -37 опасность
обморожения
983.0 811.5
03 22.09 С 9 н/о н/о -21.7 -24.9 75 -35 -35 опасность
обморожения
982.6 811.1
06 22.09 С 9 н/о н/о -24.4 -28.0 72 -39 -39 опасность
обморожения
983.9 810.7
09 22.09 С 8 н/о н/о -25.6 -29.4 70 -40 -40 опасность
обморожения
984.3 810.3

 

Местоположение метеостанции Sky Blue (Антарктида): широта -74.79 долгота -71.49 высота над уровнем моря 1589 м.

В архиве по умолчанию представлена погода в Sky Blue за последнюю неделю. Архивные данные за месяц целиком и за предыдущие месяцы, начиная с января 2011 года, Вы можете получить, выбрав интересующий диапазон дат из раскрывающегося списка и нажав кнопку "Ввод!".


*Определитесь, кто Вы:
робот инопланетянин человек

Внимание! Время в таблицах - всемирное. Для получения местного времени необходимо прибавить поправку, которая в Sky Blue равна 0 ч.

Смотрите также архив погоды в соседних городах и на ближайших метеорологических станциях:

Погода в Limbert Aws (Антарктида) (367 км)
Погода в Fossil Bluff (Антарктида) (398 км)
Погода в Butler Island (Антарктида) (458 км)
Погода в San Martin Base (Антарктида) (758 км)
Погода в Rothera (Антарктида) (813 км)
Погода в Larsen Ice Shelf (Антарктида) (935 км)
Погода в Base Belgrano Ii (Антарктида) (1008 км)
Погода в Vernadsky (Антарктида) (1094 км)
Погода в Palmer Station (Антарктида) (1149 км)
Погода в Byrd (Антарктида) (1249 км)

Пояснения к столбцам:

Ветер - указаны скорость ветра в м/с - средняя за 10 мин, порывы в срок и между сроками (в фигурных скобках) и направление, откуда дует ветер: С - северный, СВ - северо-восточный, В - восточный, ЮВ - юго-восточный, Ю - южный, ЮЗ - юго-западный, З - западный, СЗ - северо-западный.
Видимость - горизонтальная дальность видимости в метрах или километрах. При видимости от 1 до 10 км при отсутствии осадков обычно наблюдается дымка, при ухудшении видимости до 1 км и менее - туман. В сухую погоду видимость может ухудшаться дымом, пылью или мглою.
Явления - указаны атмосферные явления, наблюдавшиеся в срок или в последний час перед сроком; фигурными скобками обозначены явления, наблюдавшиеся между сроками (за 1-3 часа до срока); квадратными скобками обозначены град или гололедные отложения с указанием их диаметра в мм.
Облачность - указаны через наклонную черту общая и нижняя облачность в баллах и высота нижней границы облаков в метрах; квадратными скобками обозначены формы облаков: Ci - перистые, Cs - перисто-слоистые, Cc - перисто-кучевые, Ac - высококучевые, As - высокослоистые, Sc - слоисто-кучевые, Ns - слоисто-дождевые, Cu - кучевые, Cb - кучево-дождевые. Подробнее классификацию облаков см. в Атласе облаков (PDF).
T - Температура воздуха - температура, измеренная на высоте 2 м над землей.
Td - Температура точки росы - температура, при понижении до которой содержащийся в воздухе водяной пар достигнет насыщения.
f - Относительная влажность воздуха - влажноcть воздуха, измеренная на высоте 2 м над землей.
Te - Эффективная температура - температура, которую ощущает одетый по сезону человек в тени. Характеристика душности погоды. При расчете учитывается влияние влажности воздуха и скорости ветра на теплоощущения человека.
Tes - Эффективная температура на солнце - температура, которую ощущает человек, с поправкой на солнечный нагрев. Характеристика знойности погоды. Зависит от высоты солнца над горизонтом, облачности и скорости ветра. Ночью, в пасмурную погоду, а также при ветре 12 м/с и более поправка равна нулю.
P - Атмосферное давление - приведенное к уровню моря атмосферное давление.
Po - Атмосферное давление - измеренное на уровне метеостанции атмосферное давление.
Tmin - Минимальная температура - минимум температуры воздуха на высоте 2 м над землей.
Tmax - Максимальная температура - максимум температуры воздуха на высоте 2 м над землей.
R - Количество осадков - Количество выпавших осадков за период времени, мм. При наведении курсора мыши на число - период времени, за который выпало указанное количество осадков.
R24 - Количество осадков - Количество выпавших осадков за 24 часа, мм.
S - Снежный покров - Высота снежного покрова, см. При наведении курсора мыши на число - состояние снежного покрова и степень покрытия местности в баллах.